AirNav   TITAN Aviation Fuels
 
 1072 users online  

T00 Chambers County Airport
Anahuac, Texas, USA

GOING TO ANAHUAC?


FAA INFORMATION EFFECTIVE 09 SEPTEMBER 2021

Location

FAA Identifier: T00
Lat/Long: 29-46-11.3332N 094-39-48.5535W
29-46.188887N 094-39.809225W
29.7698148,-94.6634871
(estimated)
Elevation: 21.2 ft. / 6.5 m (surveyed)
Variation: 05E (1995)
From city: 1 mile E of ANAHUAC, TX
Time zone: UTC -5 (UTC -6 during Standard Time)
Zip code: 77514

Airport Operations

Airport use: Open to the public
Activation date: 10/1978
Control tower: no
ARTCC: HOUSTON CENTER
FSS: MONTGOMERY COUNTY FLIGHT SERVICE STATION
NOTAMs facility: CXO (NOTAM-D service available)
Attendance: MON-FRI 0800-1700
Wind indicator: lighted
Segmented circle: yes
Lights: DUSK-DAWN. MIRL RWY 12/30 PRESET LOW INTST; TO INCR INTST ACTVT - CTAF.
Beacon: white-green (lighted land airport)
Operates sunset to sunrise.

Airport Communications

CTAF: 122.9
HOUSTON APPROACH: 134.45 [0600-0000]
HOUSTON DEPARTURE: 134.45 [0600-0000]
BLTWY RNAV DP: 134.45
BLUEBELL STAR: 124.225
BORRN RNAV DP: 134.45
CESAN STAR: 121.3
DREMR DP: 134.45
HOODO RNAV DP: 134.45
HUDZY STAR: 120.05
INDIE RNAV DP: 134.45
KARRR RNAV DP: 134.45
LURIC DP: 134.45
MMALT RNAV DP: 134.45
OHIIO STAR: 120.05
STRYA DP: 134.45
STYCK DP: 134.45
TKNIQ STAR: 119.625
WAPPL STAR: 120.05
WATFO DP: 134.45
WYLSN RNAV DP: 134.45
WX AWOS-3PT at T78 (19 nm N): 120.775 (936-587-4150)

Nearby radio navigation aids

VOR radial/distance  VOR name  Freq  Var
MHFr011/14.1TRINITY VOR/DME113.6007E
DASr177/25.2DAISETTA VORTAC116.9005E
VUHr014/31.9SCHOLES VOR/DME113.0006E
SBIr272/33.0SABINE PASS VOR/DME115.4007E
BPTr246/35.3BEAUMONT VOR/DME114.5007E
IAHr103/37.2HUMBLE VORTAC116.6005E

 
NDB name  Hdg/Dist  Freq  Var  ID
GOODHUE226/29.636807EGDE --. -.. .

Airport Services

Fuel available: 100LL JET-A
Parking: tiedowns
Bottled oxygen: NONE
Bulk oxygen: NONE

Runway Information

Runway 12/30

Dimensions: 3005 x 60 ft. / 916 x 18 m
Surface: asphalt, in poor condition
EXTSV CRACKING WITH VEGETATION GROWING THRU.
Weight bearing capacity: 
Single wheel: 13.0
Runway edge lights: medium intensity
RUNWAY 12  RUNWAY 30
Latitude: 29-46.363987N29-46.053815N
Longitude: 094-39.966058W094-39.522763W
Elevation: 20.4 ft.20.4 ft.
Traffic pattern: leftright
Runway heading: 124 magnetic, 129 true304 magnetic, 309 true
Markings: nonprecision, in good conditionnonprecision, in good condition
Visual slope indicator: 2-light PAPI on left (4.00 degrees glide path)
Touchdown point: yes, no lightsyes, no lights
Obstructions: 45 ft. pole, 882 ft. from runway, 160 ft. left of centerline, 15:1 slope to clear15 ft. road, 530 ft. from runway, 280 ft. left of centerline, 22:1 slope to clear

Runway 17/35

Dimensions: 1900 x 300 ft. / 579 x 91 m
Surface: turf, in good condition
RUNWAY 17  RUNWAY 35
Latitude: 29-46.313965N29-46.000500N
Longitude: 094-39.911733W094-39.911733W
Elevation: 20.0 ft.20.0 ft.
Traffic pattern: leftright
Runway heading: 175 magnetic, 180 true355 magnetic, 000 true
Markings: none, in good conditionnone, in good condition
Touchdown point: yes, no lightsyes, no lights
Obstructions: 60 ft. trees, 890 ft. from runway, 90 ft. left of centerline, 14:1 slope to clear17 ft. road, 230 ft. from runway, 13:1 slope to clear

Airport Ownership and Management from official FAA records

Ownership: Publicly-owned
Owner: CHAMBERS COUNTY
PO BOX 938
ANAHUAC, TX 77514
Phone 409-267-2400
Manager: KELLY TRAHAN
PO BOX 938
ANAHUAC, TX 77514
Phone 409-267-2719

Airport Operational Statistics

Aircraft based on the field: 9
Single engine airplanes: 8
Multi engine airplanes: 1
    
Aircraft operations: avg 46/week *
67% local general aviation
33% transient general aviation
* for 12-month period ending 23 April 2020

Additional Remarks

RWY 17/35 SOFT WHEN WET.
RWY 17, PAPI RWY 12 IN RWY 17 APCH, DO NOT LAND BFR XNG RWY 12.
FOR CD CTC HOUSTON APCH AT 281-443-5844 TO CNL IFR CALL 281-443-5888.

Instrument Procedures

NOTE: All procedures below are presented as PDF files. If you need a reader for these files, you should download the free Adobe Reader.

NOT FOR NAVIGATION. Please procure official charts for flight.
FAA instrument procedures published for use from 09 September 2021 at 0901Z to 07 October 2021 at 0900Z.

 
STARs - Standard Terminal Arrivals
BLUBELL FOUR   download (316KB)
CESAN FOUR (RNAV)   2 pages: [1] [2] (406KB)
HUDZY FOUR   2 pages: [1] [2] (344KB)
OHIIO FOUR   download (305KB)
TKNIQ TWO (RNAV)   2 pages: [1] [2] (331KB)
TSHRT ONE ARRIVAL   2 pages: [1] [2] (378KB)
WAPPL FIVE (RNAV)   2 pages: [1] [2] (422KB)
WAPPL FIVE (RNAV), CONT.2   download (285KB)
 
IAPs - Instrument Approach Procedures
RNAV (GPS) RWY 12   download (198KB)
 
Departure Procedures
BLTWY SIX (RNAV)   download (154KB)
BORRN FOUR (RNAV)   2 pages: [1] [2] (299KB)
HOODO SIX (RNAV)   download (203KB)
INDIE SEVEN (RNAV)   download (179KB)
KARRR SIX (RNAV)   2 pages: [1] [2] (255KB)
LURIC SEVEN (RNAV)   download (197KB)
MMALT FIVE (RNAV)   download (214KB)
PALACIOS ONE   2 pages: [1] [2] (308KB)
STRYA SEVEN (RNAV)   download (186KB)
STYCK SEVEN (RNAV)   download (173KB)
WATFO FIVE (RNAV)   download (160KB)
WYLSN SEVEN (RNAV)   download (162KB)
NOTE: Special Take-Off Minimums/Departure Procedures apply   download (70KB)

Other nearby airports with instrument procedures:

54T - RWJ Airpark (10 nm W)
KHPY - Baytown Airport (15 nm W)
T78 - Liberty Municipal Airport (19 nm N)
T41 - La Porte Municipal Airport (22 nm W)
KEFD - Ellington Airport (28 nm W)
 
Loc | Ops | Rwys | IFR | FBO | Links
Com | Nav | Svcs | Stats | Notes
Area around T00 (Chambers County Airport)
 
Road maps at: MapQuest Bing Google
 
Aerial photo
WARNING: Photo may not be current or correct
Aerial photo of T00 (Chambers County Airport)
Photo taken 04-Mar-2007
on final for runway 30

Do you have a better or more recent aerial photo of Chambers County Airport that you would like to share? If so, please send us your photo.

 
Sectional chart

 
Airport distance calculator
Flying to Chambers County Airport? Find the distance to fly.

From to T00

Sunrise and sunset
Times for 26-Sep-2021
 Local
(UTC-5)
 Zulu
(UTC)
Morning civil twilight06:4611:46
Sunrise07:1012:10
Sunset19:1000:10
Evening civil twilight19:3400:34

Current date and time
Zulu (UTC)  26-Sep-2021 23:31:17
Local (UTC-5)  26-Sep-2021 18:31:17
 
METAR
KT41 
22nm W 
262315Z AUTO 12009KT 10SM CLR 26/19 A3003 RMK AO2 T02590187
KEFD 
28nm W 
262250Z 10010KT 10SM FEW045 26/18 A3002
KBMT 
29nm NE 
262315Z AUTO 16005KT 10SM CLR 27/18 A3003 RMK AO2 T02670177
KGLS 
32nm S 
262252Z AUTO 11009KT 10SM FEW031 28/19 A3003 RMK AO2 SLP169 T02830189
KHOU 
33nm W 
262253Z 15008KT 10SM FEW043 SCT048 BKN250 29/17 A3001 RMK AO2 SLP168 T02890172
KLVJ 
34nm SW 
262253Z AUTO 12007KT 10SM OVC048 27/18 A3003 RMK AO2 SLP169 T02720183
KBPT 
35nm E 
262253Z 16006KT 10SM CLR 26/18 A3002 RMK AO2 SLP166 T02610178
KIAH 
39nm W 
262253Z 14009KT 10SM FEW048 FEW250 28/16 A3001 RMK AO2 SLP163 T02830161
K6R3 
39nm NW 
262315Z AUTO 16003KT 10SM CLR 27/16 A3003 RMK AO2 T02710160
TAF
KEFD 
28nm W 
262000Z 2620/2802 11009KT 9999 SKC QNH2999INS BECMG 2707/2708 VRB06KT 9999 BKN030 QNH3000INS BECMG 2723/2724 10010G15KT 9999 BKN025 QNH2991INS TX29/2621Z TN20/2708Z
KGLS 
32nm S 
262051Z 2621/2718 12007KT P6SM FEW030 FM271000 13010KT P6SM VCSH SCT020 BKN050 FM271300 10008KT P6SM VCSH SCT025 FM271600 11010KT P6SM VCTS BKN030CB OVC250
KHOU 
33nm W 
262051Z 2621/2718 09008KT P6SM FEW040 SCT250 FM270300 VRB04KT P6SM SCT025 SCT250 TEMPO 2708/2712 BKN025 FM271200 10008KT P6SM VCSH SCT025 FM271700 12010KT P6SM VCTS BKN030CB OVC250
KBPT 
35nm E 
261732Z 2618/2718 06008KT P6SM SKC FM270100 VRB03KT P6SM SKC FM271500 13007KT P6SM BKN040
NOTAMs
Click for the latest NOTAMs
NOTAMs are issued by the DoD/FAA and will open in a separate window not controlled by AirNav.

 

 
 

FBO, Fuel Providers, and Aircraft Ground Support

  
 Business Name 
 
 Contact 
 
 Services / Description 
 
Fuel Prices
 
Comments
  
Chambers County Anahuac Airport 409-267-2719
no information available

If you are affiliated with Chambers County Anahuac Airport and would like to show here your services, contact info, web link, logo, and more, click here
100LL Jet A
SS $4.00 $3.40 
 Updated 16-Sep-2021
 
   write
SS=Self service
Update Fuel Prices
 

Would you like to see your business listed on this page?

 If your business provides an interesting product or service to pilots, flight crews, aircraft, or users of the Chambers County Airport, you should consider listing it here.  To start the listing process, click on the button below
 
Add a business
 

Other Pages about Chambers County Airport

www.co.chambers.tx.us/...
 
Update a link
 
Copyright © AirNav, LLC. All rights reserved. Privacy Policy  Contact